Date String (YYYY-MM-DD hh:mm:ss) UTC,Instrument flags,Ambient pressure (hPa),Sample flow (lpm),Bypass flow (lpm),Sample temperature (°C),Ambient temperature (°C),ASC tube jacket temperature (°C),LED temperature (°C),Box temperature (°C),Sample RH (%),Span deviation,Mass concentration (μg/m³),Mass concentration (μg/m³),Mass concentration (μg/m³)
DateTimeUTC,F1_M11,P_M11,Q1_M11,Q2_M11,T1_M11,T2_M11,T3_M11,T4_M11,T5_M11,U1_M11,ZSPAN_M11,X0_M11,X2_M11,X1_M11
2022-10-30 02:00:00,,0829.2,5.00,0.00,27.8,26.1,00.0,36.8,29.5,07.6,0000.0,0006.72,0003.51,0003.16
2022-10-30 02:01:00,,0829.2,5.00,0.00,27.8,26.0,00.0,36.8,29.5,07.6,0000.0,0006.77,0003.50,0003.18
2022-10-30 02:02:00,,0829.2,5.00,0.00,27.8,26.0,00.0,36.8,29.6,07.6,0000.0,0006.81,0003.50,0003.19
2022-10-30 02:03:00,,0829.2,5.00,0.00,27.8,26.0,00.0,36.8,29.5,07.6,0000.0,0006.76,0003.49,0003.20
2022-10-30 02:04:00,,0829.2,5.00,0.00,27.8,26.0,00.0,36.8,29.4,07.6,0000.0,0006.77,0003.52,0003.22
2022-10-30 02:05:00,,0829.2,5.00,0.00,27.8,26.0,00.0,36.7,29.5,07.6,0000.0,0006.73,0003.55,0003.22
2022-10-30 02:06:00,,0829.2,4.98,0.00,27.8,26.0,00.0,36.7,29.5,07.6,0000.0,0007.65,0003.56,0003.23
2022-10-30 02:07:00,,0829.2,5.01,0.00,27.8,26.0,00.0,36.7,29.5,07.6,0000.0,0008.40,0003.58,0003.25
2022-10-30 02:08:00,,0829.1,5.00,0.00,27.8,26.0,00.0,36.7,29.5,07.6,0000.0,0008.96,0003.61,0003.27
2022-10-30 02:09:00,,0829.1,5.00,0.00,27.8,26.0,00.0,36.7,29.5,07.6,0000.0,0009.10,0003.63,0003.29
2022-10-30 02:10:00,,0829.1,5.00,0.00,27.7,26.0,00.0,36.7,29.4,07.6,0000.0,0009.10,0003.64,0003.31
2022-10-30 02:11:00,,0829.1,5.00,0.00,27.7,25.9,00.0,36.7,29.4,07.6,0000.0,0008.85,0003.64,0003.32
2022-10-30 02:12:00,,0829.1,5.00,0.00,27.7,25.9,00.0,36.7,29.4,07.6,0000.0,0008.57,0003.63,0003.33
2022-10-30 02:13:00,,0829.1,5.00,0.00,27.7,25.9,00.0,36.7,29.5,07.6,0000.0,0009.08,0003.63,0003.33
2022-10-30 02:14:00,,0829.1,5.00,0.00,27.7,25.9,00.0,36.6,29.4,07.6,0000.0,0009.03,0003.64,0003.34
2022-10-30 02:15:00,,0829.1,4.98,0.00,27.7,25.9,00.0,36.6,29.3,07.7,0000.0,0009.06,0003.63,0003.34
2022-10-30 02:16:00,,0829.0,5.00,0.00,27.7,25.9,00.0,36.6,29.3,07.6,0000.0,0009.01,0003.61,0003.34
2022-10-30 02:17:00,,0829.1,5.00,0.00,27.6,25.9,00.0,36.6,29.3,07.6,0000.0,0008.57,0003.62,0003.35
2022-10-30 02:18:00,,0829.0,5.00,0.00,27.6,25.8,00.0,36.6,29.2,07.7,0000.0,0007.85,0003.65,0003.36
2022-10-30 02:19:00,,0829.1,5.01,0.00,27.6,25.8,00.0,36.6,29.3,07.7,0000.0,0007.62,0003.66,0003.37
2022-10-30 02:20:00,,0829.1,5.01,0.00,27.6,25.8,00.0,36.6,29.3,07.7,0000.0,0007.48,0003.68,0003.37
2022-10-30 02:21:00,,0829.1,5.00,0.00,27.6,25.8,00.0,36.6,29.3,07.7,0000.0,0007.50,0003.69,0003.38
2022-10-30 02:22:00,,0829.1,5.00,0.00,27.6,25.8,00.0,36.6,29.3,07.7,0000.0,0007.62,0003.68,0003.39
2022-10-30 02:23:00,,0829.1,5.00,0.00,27.6,25.8,00.0,36.5,29.3,07.6,0000.0,0007.91,0003.68,0003.40
2022-10-30 02:24:00,,0829.1,5.00,0.00,27.6,25.8,00.0,36.5,29.4,07.6,0000.0,0007.84,0003.71,0003.41
2022-10-30 02:25:00,,0829.0,5.00,0.00,27.6,25.8,00.0,36.5,29.4,07.6,0000.0,0008.35,0003.72,0003.43
2022-10-30 02:26:00,,0829.1,4.98,0.00,27.6,25.8,00.0,36.5,29.4,07.6,0000.0,0010.57,0003.75,0003.44
2022-10-30 02:27:00,,0829.1,5.00,0.00,27.6,25.9,00.0,36.5,29.4,07.6,0000.0,0011.13,0003.79,0003.46
2022-10-30 02:28:00,,0829.0,5.00,0.00,27.6,25.8,00.0,36.5,29.4,07.6,0000.0,0011.22,0003.82,0003.48
2022-10-30 02:29:00,,0829.1,5.00,0.00,27.6,25.8,00.0,36.5,29.4,07.6,0000.0,0011.14,0003.83,0003.49
2022-10-30 02:30:00,,0829.1,5.01,0.00,27.6,25.8,00.0,36.5,29.3,07.6,0000.0,0010.97,0003.84,0003.50
2022-10-30 02:31:00,,0829.1,5.00,0.00,27.5,25.8,00.0,36.5,29.3,07.6,0000.0,0010.96,0003.86,0003.51
2022-10-30 02:32:00,,0829.1,5.00,0.00,27.5,25.8,00.0,36.5,29.2,07.7,0000.0,0010.91,0003.85,0003.51
2022-10-30 02:33:00,,0829.0,5.01,0.00,27.5,25.7,00.0,36.5,29.2,07.7,0000.0,0010.84,0003.85,0003.52
2022-10-30 02:34:00,,0829.1,4.98,0.00,27.5,25.7,00.0,36.4,29.2,07.7,0000.0,0010.42,0003.88,0003.53
2022-10-30 02:35:00,,0829.1,5.00,0.00,27.5,25.7,00.0,36.4,29.2,07.7,0000.0,0010.24,0003.93,0003.55
2022-10-30 02:36:00,,0829.1,5.01,0.00,27.5,25.7,00.0,36.4,29.2,07.7,0000.0,0009.79,0003.98,0003.56
2022-10-30 02:37:00,,0829.1,5.00,0.00,27.5,25.7,00.0,36.4,29.2,07.7,0000.0,0007.69,0004.02,0003.59
2022-10-30 02:38:00,,0829.0,4.99,0.00,27.5,25.7,00.0,36.4,29.2,07.7,0000.0,0007.16,0004.05,0003.60
2022-10-30 02:39:00,,0829.1,5.00,0.00,27.5,25.7,00.0,36.4,29.2,07.7,0000.0,0007.16,0004.05,0003.61
2022-10-30 02:40:00,,0829.1,5.00,0.00,27.4,25.6,00.0,36.4,29.2,07.7,0000.0,0007.31,0004.03,0003.60
2022-10-30 02:41:00,,0829.0,5.00,0.00,27.4,25.6,00.0,36.4,29.2,07.7,0000.0,0007.33,0004.03,0003.61
2022-10-30 02:42:00,,0829.1,5.00,0.00,27.4,25.6,00.0,36.4,29.1,07.7,0000.0,0007.24,0004.01,0003.62
2022-10-30 02:43:00,,0829.1,4.98,0.00,27.4,25.6,00.0,36.3,29.1,07.8,0000.0,0007.29,0004.04,0003.62
2022-10-30 02:44:00,,0829.0,5.02,0.00,27.4,25.6,00.0,36.3,29.0,07.8,0000.0,0007.38,0004.08,0003.63
2022-10-30 02:45:00,,0829.1,4.99,0.00,27.4,25.6,00.0,36.3,29.1,07.8,0000.0,0007.40,0004.09,0003.63
2022-10-30 02:46:00,,0829.0,4.99,0.00,27.4,25.6,00.0,36.3,29.1,07.8,0000.0,0007.33,0004.06,0003.63
2022-10-30 02:47:00,,0829.1,5.01,0.00,27.4,25.6,00.0,36.3,29.1,07.8,0000.0,0007.48,0004.01,0003.62
2022-10-30 02:48:00,,0829.1,5.00,0.00,27.3,25.6,00.0,36.3,29.1,07.8,0000.0,0007.45,0003.99,0003.61
2022-10-30 02:49:00,,0829.1,4.99,0.00,27.3,25.6,00.0,36.3,29.1,07.8,0000.0,0007.73,0003.95,0003.60
2022-10-30 02:50:00,,0829.0,5.00,0.00,27.3,25.6,00.0,36.3,29.0,07.8,0000.0,0008.17,0003.94,0003.60
2022-10-30 02:51:00,,0829.0,5.00,0.00,27.3,25.5,00.0,36.3,29.0,07.8,0000.0,0008.02,0003.94,0003.61
2022-10-30 02:52:00,,0829.0,4.99,0.00,27.3,25.5,00.0,36.3,29.0,07.8,0000.0,0008.26,0003.95,0003.61
2022-10-30 02:53:00,,0829.1,5.02,0.00,27.3,25.5,00.0,36.3,29.1,07.7,0000.0,0008.30,0003.97,0003.62
2022-10-30 02:54:00,,0829.0,5.01,0.00,27.3,25.5,00.0,36.2,29.1,07.7,0000.0,0008.27,0003.95,0003.63
2022-10-30 02:55:00,,0829.0,4.98,0.00,27.3,25.5,00.0,36.2,29.0,07.7,0000.0,0008.30,0003.95,0003.64
2022-10-30 02:56:00,,0829.1,5.01,0.00,27.3,25.5,00.0,36.2,29.0,07.7,0000.0,0008.61,0003.94,0003.64
2022-10-30 02:57:00,,0829.1,5.00,0.00,27.3,25.5,00.0,36.2,28.9,07.7,0000.0,0008.67,0003.96,0003.65
2022-10-30 02:58:00,,0829.1,5.00,0.00,27.3,25.5,00.0,36.2,28.9,07.8,0000.0,0008.43,0003.96,0003.65
2022-10-30 02:59:00,,0829.1,5.00,0.00,27.2,25.5,00.0,36.2,29.0,07.8,0000.0,0009.07,0003.97,0003.67
